Weather History for New Bedford, MA

Change the Weather History Date:

Sunday, December 9, 2012

  Actual Average Record
Temperature  
Mean Temperature 46 °F -  
Max Temperature 51 °F 45 °F 65 °F (1966)
Min Temperature 41 °F 29 °F 8 °F (1989)
Degree Days  
Heating Degree Days 19    
Moisture  
Dew Point 39 °F    
Average Humidity 81    
Maximum Humidity 100    
Minimum Humidity 50    
Precipitation  
Precipitation 0.11 in - - ()
Sea Level Pressure  
Sea Level Pressure 30.17 in    
Wind  
Wind Speed 5 mph (NNE)    
Max Wind Speed 10 mph    
Max Gust Speed 18 mph    
Visibility 8 miles    
Events Rain    
Averages and records for this station are not official NWS values.
T = Trace of Precipitation, MM = Missing Value Source: NWS Daily Summary

Daily Weather History Graph

Daily Weather History Graph

Search for Another Location

Airport:

Trip Planner

Search our weather history database for the weather conditions in past years. The results will help you decide how hot, cold, wet, or windy it might be!

Date:

Astronomy

Dec. 09, 2012 Rise Set
Actual Time 6:59 AM EST 4:13 PM EST
Civil Twilight 6:28 AM EST 4:44 PM EST
Nautical Twilight 5:53 AM EST 5:19 PM EST
Astronomical Twilight 5:19 AM EST 5:53 PM EST
Moon 2:26 AM EST (12/9) 1:20 PM EST (12/9)
Length of Visible Light 10h 16m
Length of Day
9h 13m
Waning Crescent, 19% of the Moon is Illuminated
Dec 9
Waning Crescent
Dec 13
New
Dec 20
First Quarter
Dec 28
Full
Jan 4
Last Quarter

Hourly Weather History & Observations

Time (EST) Temp. Windchill Dew Point Humidity Pressure Visibility Wind Dir Wind Speed Gust Speed Precip Events Conditions
12:53 AM 46.9 °F - 46.0 °F 97% 29.98 in 4.0 mi WSW 4.6 mph - N/A   Mostly Cloudy
1:41 AM 46.4 °F 45.2 °F 46.4 °F 100% 30.00 in 4.0 mi WSW 3.5 mph - N/A   Overcast
1:53 AM 46.0 °F 44.8 °F 45.0 °F 96% 30.01 in 3.0 mi SW 3.5 mph - N/A   Overcast
2:40 AM 48.2 °F - 46.4 °F 93% 30.02 in 4.0 mi West 5.8 mph - N/A   Overcast
2:53 AM 48.0 °F - 46.0 °F 93% 30.03 in 4.0 mi West 8.1 mph - N/A   Overcast
3:53 AM 46.0 °F 44.8 °F 45.0 °F 96% 30.06 in 3.0 mi West 3.5 mph - N/A   Mostly Cloudy
4:53 AM 44.1 °F 42.5 °F 43.0 °F 96% 30.08 in 3.0 mi WNW 3.5 mph - N/A   Clear
5:53 AM 44.1 °F 40.8 °F 42.1 °F 93% 30.10 in 6.0 mi WNW 5.8 mph - N/A   Clear
6:53 AM 44.1 °F 41.5 °F 41.0 °F 89% 30.14 in 10.0 mi NW 4.6 mph - N/A   Clear
7:53 AM 45.0 °F 43.5 °F 39.9 °F 82% 30.17 in 10.0 mi Variable 3.5 mph - N/A   Clear
8:53 AM 46.9 °F - 39.9 °F 77% 30.22 in 10.0 mi Calm Calm - N/A   Clear
9:53 AM 50.0 °F - 37.0 °F 61% 30.23 in 10.0 mi North 6.9 mph - N/A   Clear
10:53 AM 50.0 °F - 35.1 °F 57% 30.22 in 10.0 mi NNE 10.4 mph 18.4 mph N/A   Clear
11:53 AM 51.1 °F - 33.1 °F 50% 30.22 in 10.0 mi NNE 9.2 mph - N/A   Clear
12:53 PM 48.9 °F - 32.0 °F 52% 30.22 in 10.0 mi North 8.1 mph - N/A   Clear
1:53 PM 46.9 °F - 30.9 °F 54% 30.23 in 10.0 mi North 4.6 mph - N/A   Clear
2:53 PM 46.0 °F 43.1 °F 28.9 °F 51% 30.24 in 10.0 mi NNE 5.8 mph - N/A   Partly Cloudy
3:53 PM 44.1 °F 40.1 °F 30.9 °F 60% 30.25 in 10.0 mi ENE 6.9 mph - N/A   Mostly Cloudy
4:53 PM 43.0 °F - 32.0 °F 65% 30.27 in 10.0 mi Calm Calm - N/A   Overcast
5:53 PM 42.1 °F 40.2 °F 34.0 °F 73% 30.26 in 10.0 mi NE 3.5 mph - 0.00 in   Overcast
6:53 PM 41.0 °F 39.0 °F 37.0 °F 86% 30.27 in 10.0 mi NNE 3.5 mph - 0.02 in Rain Light Rain
7:30 PM 41.0 °F - 37.4 °F 87% 30.27 in 8.0 mi Calm Calm - 0.00 in Rain Light Rain
7:53 PM 41.0 °F 38.0 °F 37.9 °F 89% 30.26 in 9.0 mi NE 4.6 mph - 0.02 in Rain Light Rain
8:53 PM 42.1 °F 38.4 °F 39.9 °F 92% 30.23 in 10.0 mi ENE 5.8 mph - 0.00 in Rain Light Rain
9:53 PM 43.0 °F 39.5 °F 39.9 °F 89% 30.21 in 9.0 mi East 5.8 mph - 0.00 in   Overcast
10:53 PM 43.0 °F 38.8 °F 39.9 °F 89% 30.17 in 10.0 mi East 6.9 mph - N/A   Overcast
11:14 PM 42.8 °F 38.6 °F 41.0 °F 93% 30.16 in 4.0 mi East 6.9 mph - 0.02 in Rain Light Rain
11:33 PM 42.8 °F 39.3 °F 41.0 °F 93% 30.15 in 4.0 mi East 5.8 mph - N/A Rain Light Rain
11:53 PM 43.0 °F 38.8 °F 41.0 °F 93% 30.13 in 5.0 mi ENE 6.9 mph - 0.07 in Rain Light Rain